Regional Weather Roundup
Issued by NWS

Home | Current Version | Previous Version | Graphics & Text | Print | Product List | Glossary On
Versions: 1 2 3 4 5 6 7 8 9 10 11 12 13 14 15 16 17 18 19 20 21 22 23 24 25 26 27 28 29 30 31 32 33 34 35 36 37 38 39 40 41 42 43 44 45 46 47 48 49 50
000
ASUS43 KOAX 290802
RWRNE

WEATHER ROUNDUP FOR NEBRASKA
NATIONAL WEATHER SERVICE OMAHA NE
300 AM CDT WED MAR 29 2017

NOTES: SATELLITE DATA IS BEING USED TO AUGMENT CLOUD COVER ABOVE
       12000 FEET.
       "FAIR" INDICATES FEW OR NO CLOUDS BELOW 12,000 FEET WITH NO
       SIGNIFICANT WEATHER AND/OR OBSTRUCTIONS TO VISIBILITY.

  * THESE STATIONS DO NOT REPORT WEATHER SUCH AS RAIN...SNOW OR FOG.

NEZ001>004-019>022-054>056-290900-
NEBRASKA PANHANDLE

CITY           SKY/WX    TMP DP  RH WIND       PRES   REMARKS
SCOTTSBLUFF    CLOUDY    40  37  89 VRB5      30.12S
ALLIANCE       CLOUDY    38  36  92 CALM      30.11R
CHADRON        CLOUDY    41  38  89 CALM      30.13S
KIMBALL        DRIZZLE   37  37 100 NE6       30.10S WCI  32
SIDNEY         CLOUDY    37  35  92 NE9       30.08F WCI  30
$$

NEZ057>060-069>072-079>082-290900-
SOUTHWEST NEBRASKA

CITY           SKY/WX    TMP DP  RH WIND       PRES   REMARKS
NORTH PLATTE   LGT RAIN  44  41  89 NE10      30.06F
IMPERIAL       LGT RAIN  41  39  93 NE12      30.05F
LEXINGTON      DRIZZLE   43  41  93 NE10      30.04F
MCCOOK         LGT RAIN  42  42 100 N15       30.02F FOG
OGALLALA       CLOUDY    42  41  94 NE9       30.06F
$$

NEZ005>010-023>029-035>040-094-290900-
NORTH CENTRAL NEBRASKA

CITY           SKY/WX    TMP DP  RH WIND       PRES   REMARKS
VALENTINE      LGT RAIN  42  39  89 NE3       30.13S FOG
AINSWORTH      DRIZZLE   42  42 100 N7        30.12S
BROKEN BOW     LGT RAIN  44  42  93 N7        30.07F
O`NEILL        CLOUDY    46  44  91 CALM      30.12S
ORD            CLOUDY    44  41  89 N6        30.07F
THEDFORD       CLOUDY    42  41  97 NE3       30.10S
$$

NEZ041-046>049-061>064-073>077-083>087-290900-
SOUTH CENTRAL NEBRASKA

CITY           SKY/WX    TMP DP  RH WIND       PRES   REMARKS
GRAND ISLAND   CLOUDY    43  43 100 NE12      30.05F FOG
AURORA         CLOUDY    43  43 100 NE12      30.03F FOG
HASTINGS       CLOUDY    44  42  93 NE14      30.02F FOG
HEBRON         CLOUDY    45  44  97 NE13G22   29.98F FOG
HOLDREGE       CLOUDY    42  41  95 NE13      30.02F FOG
KEARNEY *      CLOUDY    43  39  87 NE12      30.05S
YORK           LGT RAIN  45  45 100 NE12      30.03F
$$

NEZ011>018-030>034-042>045-290900-
NORTHEAST NEBRASKA

CITY           SKY/WX    TMP DP  RH WIND       PRES   REMARKS
NORFOLK        LGT RAIN  45  41  86 E8        30.09S
ALBION         DRIZZLE   46  42  88 NE7       30.09R
FREMONT        DRIZZLE   45  45  98 NE5       30.07F
TEKAMAH        LGT RAIN  46  43  89 N7        30.09F
WAYNE          LGT RAIN  45  44  99 NE6       30.10F
$$

NEZ050>053-065>068-078-088>093-290900-
SOUTHEAST NEBRASKA

CITY           SKY/WX    TMP DP  RH WIND       PRES   REMARKS
LINCOLN        LGT RAIN  46  44  93 NE14      30.05F FOG
OMAHA EPPLEY   LGT RAIN  48  42  80 NE13      30.06F
BEATRICE       LGT RAIN  47  46  99 NE12      30.00F
FALLS CITY     CLOUDY    50  46  86 NE9       30.01R
NEBRASKA CITY  DRIZZLE   47  46  99 NE9       30.03F
PLATTSMOUTH    LGT RAIN  46  43  89 NE9       30.05F
$$

NEZ044-045-051>053-067-290900-
OMAHA AREA

CITY           SKY/WX    TMP DP  RH WIND       PRES   REMARKS
OMAHA EPPLEY   LGT RAIN  48  42  80 NE13      30.06F
FREMONT        DRIZZLE   45  45  98 NE5       30.07F
MILLARD        RAIN      49  46  90 NE3       30.06F
OFFUTT AFB     CLOUDY    46  45  93 NE10      30.05F
PLATTSMOUTH    LGT RAIN  46  43  89 NE9       30.05F
WAHOO          DRIZZLE   46  43  92 NE9       30.06F
$$




USA.gov is the U.S. government's official web portal to all federal, state and local government web resources and services.